User: anonymous   Login
Location: Asheville, NC
(35.6000°N, 82.5500°W)
Time: 21:39:39
(UTC-05:00)
Language:

DOVE 4 - Orbit

View from above orbital plane
View from above orbital plane
View from above satellite
View from above satellite

Ground track
Ground track

The orbit data is extracted from the following two-line orbital elements,

1 39430U 13066Q   18345.84578921  .00000164  00000-0  38385-4 0  9992
2 39430  97.7201 310.1416 0152308 129.5319 231.9457 14.59164115269063
Epoch (UTC): 11 December 2018 20:17:56
Eccentricity: 0.0152308
inclination: 97.7201°
perigee height: 588 km
apogee height: 803 km
right ascension of ascending node: 310.1416°
argument of perigee: 129.5319°
revolutions per day: 14.59164115
mean anomaly at epoch: 231.9457°
orbit number at epoch: 26906

The dashed part of the orbit path shows where the satellite is in the earth's shadow,  

DLR